sat.trackr.live / text

‹ back to catalog

STARLINK-36937

NORAD 68113 · 2026-044N

PAYLOAD ACTIVE UNKNOWN

§ Identity

Operator
Country
US
Launch date
2026-03-08
Launch site
AFWTR
Launch vehicle
Mass (kg)
RCS (m²)

Purposes: comms

External: N2YO · Heavens-Above · Gunter

§ Orbital elements

Epoch: 2026-09-19T08:42:02.816640Z

Period
93.91 min
Inclination
97.2842°
Eccentricity
0.0001083
Mean motion
15.33457363 rev/d
Perigee alt
464.8 km
Apogee alt
466.2 km
Semi-major
6,843.6 km
B*
4.9058e-4
RAAN
221.3342°
Arg perigee
98.7229°
Mean anomaly
261.4137°
Rev number
3,126

§ Raw data

STARLINK-369371 68113U 26044N   26262.36253260  .00015802  00000+0  49058-3 0  99942 68113  97.2842 221.3342 0001083  98.7229 261.4137 15.33457363 31265

JSON: /api/v1/satellites/68113 · /tle

For live sub-satellite position, see the globe view (requires WebGL).

§ Visibility from observer

Set your observer location to see the next 7 days of passes ≥ 10°. The values pass through the URL so the page stays shareable.

No JS? Fill the form by hand. The geolocation button needs JavaScript.